SCP
-0 -0 0 0 0 0 0 0 0 0 0 -0 0 0 0 0 0 0 -0 -0 -0 -0 -0 -0 -0 -0 -0 -0 -0 -0 -0 -0
0 -0 0 -0 0 -0 0 0 -0 0 0 0 0 0 -0 -0 0 0 0 -0 -0 0 0 -0 -0 -0 -0 -0 -0 -0 -0 -0
0 0 0 0 0 0 -0 -0 -0 -0 0 0 0 0 -0 -0 0 0 0 -0 -0 0 0 -0 -0 -0 -0 -0 -0 -0 0 0
0 0 0 0 0 -0 -0 0 0 -0 0 0 0 0 0 0 0 0 1 0 0 0 0 -0 -0 -0 0 0 0 0 0 -0
0 0 0 0 0 0 0 -0 -0 -0 0 0 0 0 0 0 0 0 1 0 0 0 0 0 0 -0 -0 -0 -0 -0 0 -0
0 0 0 0 0 -0 -0 -0 0 0 0 0 0 0 0 0 0 0 0 0 0 0 0 0 1 1 1 1 0 -0 -0 -0
0 0 0 -0 0 -0 0 -0 -0 -0 0 0 0 0 0 0 0 0 0 1 1 0 0 1 1 2 1 1 2 0 -0 -0
0 0 0 -0 -0 -0 -0 -0 -0 -0 0 0 0 0 0 0 0 0 0 1 1 1 1 1 1 0 1 1 2 1 0 0
0 0 0 0 0 0 0 0 0 0 0 0 0 0 0 0 0 0 0 0 1 1 1 1 1 0 0 0 -0 4 1 0
0 0 0 0 0 0 0 0 0 0 0 0 0 0 0 1 1 1 1 1 1 1 1 0 0 1 -0 -0 -0 0 2 2
0 0 0 0 0 0 0 0 0 0 0 0 0 0 0 0 0 0 1 1 1 1 1 1 0 0 1 1 1 1 1 2
0 0 0 0 0 0 0 0 0 0 0 0 0 0 1 1 1 1 1 1 1 1 1 1 1 1 0 0 0 -0 0 0
0 0 0 0 0 0 0 0 0 0 0 0 0 0 1 1 1 1 1 1 1 1 1 1 1 0 0 -0 0 0 0 1
0 0 0 0 0 0 0 0 0 0 0 0 0 0 0 1 1 1 1 2 1 2 2 1 1 1 1 1 1 1 0 0
0 0 0 0 0 0 0 0 0 0 0 0 0 0 0 0 0 0 1 1 1 1 1 1 1 1 0 1 1 1 1 0
0 0 0 0 0 0 0 0 0 0 0 0 0 0 0 0 0 0 0 0 0 0 0 0 0 0 0 0 0 0 0 1
0 0 0 0 0 0 0 0 0 0 0 0 0 0 0 0 0 0 0 0 0 0 0 0 0 0 0 0 0 0 0 0
0 0 0 0 0 0 0 0 0 0 0 0 0 0 0 0 0 0 0 0 0 0 0 0 0 0 0 0 0 0 0 0
0 0 0 0 0 0 0 0 0 0 0 0 0 0 0 0 0 0 0 0 0 0 0 0 0 0 0 0 0 0 0 0
Wind_Speed_500mb
4 6 12 10 17 17 23 21 21 28 3 21 7 20 23 22 13 9 39 51 58 61 61 61 59 60 59 58 53 50 47 45
8 9 13 14 13 16 16 20 22 14 6 13 21 24 23 22 15 10 15 35 44 51 55 57 56 57 58 61 57 52 49 47
14 3 18 11 20 12 14 13 20 19 5 18 13 16 22 22 20 11 4 18 33 40 44 47 47 47 47 48 50 52 51 50
15 3 3 11 11 20 15 15 14 17 12 14 12 13 18 20 19 12 14 8 17 30 36 39 40 41 45 44 49 48 46 48
11 21 18 18 2 12 14 17 27 20 2 7 12 11 14 18 22 22 15 11 12 18 27 29 26 30 31 35 39 38 44 43
21 19 14 17 19 17 21 20 21 16 20 4 13 9 9 15 17 19 18 17 15 12 17 16 16 13 9 14 22 29 33 37
24 22 25 29 32 30 29 29 30 30 15 19 14 9 6 6 11 15 16 20 22 16 17 21 23 23 22 10 10 20 32 39
30 33 35 36 38 38 37 36 37 32 37 31 7 5 13 9 6 11 15 15 20 19 28 31 24 21 21 26 41 33 30 31
31 18 21 25 37 36 34 36 30 30 28 18 14 14 20 19 11 11 12 11 13 16 21 23 23 18 21 27 49 39 33 19
21 10 25 5 7 4 14 15 20 28 20 12 13 7 15 16 11 12 17 15 14 19 25 25 24 25 27 27 38 33 6 4
14 21 27 24 10 10 12 18 17 17 11 13 10 11 20 14 10 11 17 15 13 13 13 17 19 22 21 14 15 22 23 20
10 15 16 13 9 7 12 19 19 16 13 10 10 17 13 11 8 10 15 15 15 12 8 6 6 9 14 15 10 7 13 18
19 17 14 13 9 5 20 9 26 21 17 16 17 21 8 8 3 7 14 18 18 16 13 12 8 5 5 4 2 6 7 9
15 17 29 13 5 13 19 23 20 21 18 19 18 20 22 19 17 14 15 17 18 19 19 16 12 9 8 5 10 15 18 19
8 6 2 16 24 19 18 18 23 29 28 26 29 27 25 25 24 18 15 18 18 20 21 20 17 16 13 15 19 22 25 24
11 17 11 19 33 35 29 32 40 43 44 40 42 40 38 34 29 27 23 20 20 21 21 22 22 24 26 25 22 24 27 30
25 34 30 26 15 27 34 38 41 36 35 43 48 52 50 48 43 38 33 28 26 28 26 23 25 23 19 21 21 24 28 26
20 27 27 36 40 38 37 39 38 38 44 48 51 55 52 51 48 41 33 31 32 30 32 26 26 27 22 22 26 29 28 32
32 36 40 43 40 33 25 30 38 42 45 49 50 49 51 60 54 45 38 33 33 30 29 27 28 25 23 26 28 31 31 33
Wind_Direction_500mb
46 344 318 10 265 360 293 252 265 276 148 258 58 29 21 23 36 167 189 192 198 200 201 201 200 201 205 214 222 229 235 233
91 251 214 287 346 260 218 268 266 248 270 280 17 5 9 20 16 37 179 196 198 201 204 208 209 208 211 218 221 222 226 228
252 277 334 270 240 215 293 291 295 270 230 58 21 360 355 6 14 350 287 207 205 202 205 209 210 211 212 217 221 223 224 222
323 49 287 295 319 272 282 239 239 301 314 62 29 9 355 3 11 357 324 213 197 199 200 205 207 209 209 213 216 220 218 219
218 173 193 256 287 302 276 279 275 281 230 67 57 8 22 20 17 16 30 78 136 177 189 194 200 204 213 216 220 215 221 218
292 349 333 297 279 267 281 284 283 238 270 118 35 23 58 46 30 26 29 56 81 119 145 151 158 177 203 228 231 232 220 216
277 283 277 278 282 280 273 271 280 283 304 302 342 344 98 72 50 53 47 54 73 69 99 110 114 112 93 90 314 246 229 225
273 275 274 273 271 266 263 263 263 264 272 281 324 220 188 166 101 82 57 61 64 92 98 95 106 69 202 235 337 278 246 231
276 285 289 265 253 253 258 257 254 255 266 326 262 229 206 186 168 134 123 109 102 101 95 93 97 91 71 103 211 289 262 282
268 271 250 319 69 307 296 274 255 248 266 277 269 230 204 202 196 179 166 155 138 117 106 100 101 105 123 157 192 209 119 251
249 242 265 277 195 247 239 298 214 239 234 251 230 256 232 230 230 210 191 172 160 150 144 122 120 122 115 109 70 41 21 13
206 269 277 51 58 328 305 255 20 316 279 260 253 252 104 126 153 170 180 189 190 195 196 174 139 135 141 144 131 90 60 29
233 259 280 62 340 296 239 11 351 354 338 302 255 287 347 331 356 239 210 207 210 214 221 221 210 200 201 173 137 31 13 355
246 264 253 42 221 298 347 319 346 350 340 318 302 297 303 305 300 283 253 234 227 223 221 225 220 228 243 262 311 325 326 326
257 27 8 301 300 315 310 307 322 320 311 306 301 295 297 301 305 302 277 254 244 236 233 226 228 253 243 267 294 302 306 305
288 258 298 291 300 299 291 291 300 294 291 290 289 289 288 287 287 288 287 280 265 258 251 246 252 263 276 286 293 297 301 301
265 268 278 280 269 309 306 300 299 299 286 286 283 282 284 284 283 281 278 272 270 271 269 262 268 275 278 284 294 303 307 310
268 309 306 295 295 297 299 297 296 295 297 287 279 278 278 280 277 278 279 276 265 263 261 256 259 267 277 292 304 310 312 305
286 292 292 288 287 292 293 296 296 293 291 292 290 285 281 272 263 266 278 281 265 254 247 238 248 255 266 283 299 310 310 307
Wind_Speed_850mb
4 6 12 10 17 17 23 21 21 28 3 21 7 20 23 22 13 9 39 51 58 61 61 61 59 60 59 58 53 50 47 45
8 9 13 14 13 16 16 20 22 14 6 13 21 24 23 22 15 10 15 35 44 51 55 57 56 57 58 61 57 52 49 47
14 3 18 11 20 12 14 13 20 19 5 18 13 16 22 22 20 11 4 18 33 40 44 47 47 47 47 48 50 52 51 50
15 3 3 11 11 20 15 15 14 17 12 14 12 13 18 20 19 12 14 8 17 30 36 39 40 41 45 44 49 48 46 48
11 21 18 18 2 12 14 17 27 20 2 7 12 11 14 18 22 22 15 11 12 18 27 29 26 30 31 35 39 38 44 43
21 19 14 17 19 17 21 20 21 16 20 4 13 9 9 15 17 19 18 17 15 12 17 16 16 13 9 14 22 29 33 37
24 22 25 29 32 30 29 29 30 30 15 19 14 9 6 6 11 15 16 20 22 16 17 21 23 23 22 10 10 20 32 39
30 33 35 36 38 38 37 36 37 32 37 31 7 5 13 9 6 11 15 15 20 19 28 31 24 21 21 26 41 33 30 31
31 18 21 25 37 36 34 36 30 30 28 18 14 14 20 19 11 11 12 11 13 16 21 23 23 18 21 27 49 39 33 19
21 10 25 5 7 4 14 15 20 28 20 12 13 7 15 16 11 12 17 15 14 19 25 25 24 25 27 27 38 33 6 4
14 21 27 24 10 10 12 18 17 17 11 13 10 11 20 14 10 11 17 15 13 13 13 17 19 22 21 14 15 22 23 20
10 15 16 13 9 7 12 19 19 16 13 10 10 17 13 11 8 10 15 15 15 12 8 6 6 9 14 15 10 7 13 18
19 17 14 13 9 5 20 9 26 21 17 16 17 21 8 8 3 7 14 18 18 16 13 12 8 5 5 4 2 6 7 9
15 17 29 13 5 13 19 23 20 21 18 19 18 20 22 19 17 14 15 17 18 19 19 16 12 9 8 5 10 15 18 19
8 6 2 16 24 19 18 18 23 29 28 26 29 27 25 25 24 18 15 18 18 20 21 20 17 16 13 15 19 22 25 24
11 17 11 19 33 35 29 32 40 43 44 40 42 40 38 34 29 27 23 20 20 21 21 22 22 24 26 25 22 24 27 30
25 34 30 26 15 27 34 38 41 36 35 43 48 52 50 48 43 38 33 28 26 28 26 23 25 23 19 21 21 24 28 26
20 27 27 36 40 38 37 39 38 38 44 48 51 55 52 51 48 41 33 31 32 30 32 26 26 27 22 22 26 29 28 32
32 36 40 43 40 33 25 30 38 42 45 49 50 49 51 60 54 45 38 33 33 30 29 27 28 25 23 26 28 31 31 33
Wind_Direction_850mb
46 344 318 10 265 360 293 252 265 276 148 258 58 29 21 23 36 167 189 192 198 200 201 201 200 201 205 214 222 229 235 233
91 251 214 287 346 260 218 268 266 248 270 280 17 5 9 20 16 37 179 196 198 201 204 208 209 208 211 218 221 222 226 228
252 277 334 270 240 215 293 291 295 270 230 58 21 360 355 6 14 350 287 207 205 202 205 209 210 211 212 217 221 223 224 222
323 49 287 295 319 272 282 239 239 301 314 62 29 9 355 3 11 357 324 213 197 199 200 205 207 209 209 213 216 220 218 219
218 173 193 256 287 302 276 279 275 281 230 67 57 8 22 20 17 16 30 78 136 177 189 194 200 204 213 216 220 215 221 218
292 349 333 297 279 267 281 284 283 238 270 118 35 23 58 46 30 26 29 56 81 119 145 151 158 177 203 228 231 232 220 216
277 283 277 278 282 280 273 271 280 283 304 302 342 344 98 72 50 53 47 54 73 69 99 110 114 112 93 90 314 246 229 225
273 275 274 273 271 266 263 263 263 264 272 281 324 220 188 166 101 82 57 61 64 92 98 95 106 69 202 235 337 278 246 231
276 285 289 265 253 253 258 257 254 255 266 326 262 229 206 186 168 134 123 109 102 101 95 93 97 91 71 103 211 289 262 282
268 271 250 319 69 307 296 274 255 248 266 277 269 230 204 202 196 179 166 155 138 117 106 100 101 105 123 157 192 209 119 251
249 242 265 277 195 247 239 298 214 239 234 251 230 256 232 230 230 210 191 172 160 150 144 122 120 122 115 109 70 41 21 13
206 269 277 51 58 328 305 255 20 316 279 260 253 252 104 126 153 170 180 189 190 195 196 174 139 135 141 144 131 90 60 29
233 259 280 62 340 296 239 11 351 354 338 302 255 287 347 331 356 239 210 207 210 214 221 221 210 200 201 173 137 31 13 355
246 264 253 42 221 298 347 319 346 350 340 318 302 297 303 305 300 283 253 234 227 223 221 225 220 228 243 262 311 325 326 326
257 27 8 301 300 315 310 307 322 320 311 306 301 295 297 301 305 302 277 254 244 236 233 226 228 253 243 267 294 302 306 305
288 258 298 291 300 299 291 291 300 294 291 290 289 289 288 287 287 288 287 280 265 258 251 246 252 263 276 286 293 297 301 301
265 268 278 280 269 309 306 300 299 299 286 286 283 282 284 284 283 281 278 272 270 271 269 262 268 275 278 284 294 303 307 310
268 309 306 295 295 297 299 297 296 295 297 287 279 278 278 280 277 278 279 276 265 263 261 256 259 267 277 292 304 310 312 305
286 292 292 288 287 292 293 296 296 293 291 292 290 285 281 272 263 266 278 281 265 254 247 238 248 255 266 283 299 310 310 307